Погода в Мындагае

Россия / Республика Саха (Якутия)     61°38′39″N   133°12′23″E
темп.,
°C
ветер,
м/с
пор.,
м/с
влажн.,
%
обл.,
%
осадки,
мм/ч
давл.,
гПа
погр.,
м
22 января, сб
сб2200:00−29в119988 0.1 103449
03:00−29вюв119989 0.1 103444
06:00−28вюв1199100 0.1 103339
09:00−27в119984 0.2 103340
12:00−25в009499 0.1 1032153
15:00−24св019786 0.2 103163
18:00−26ссв00100100 0.1 103210
21:00−27с00100100 0.1 103112
23 января, вс
вс2300:00−30зсз00100100 0.1 10319
03:00−30всв0010099 0.1 103011
06:00−29в00100100 0.1 102920
09:00−27в009998 0.2 102846
12:00−24св0194100 0.1 1027176
15:00−24св0197100 0.3 102699
18:00−27ссв11100100 0.1 10279
21:00−28с1110099 0.1 10269
24 января, пн
пн2400:00−33с1110081 0.0 10279
03:00−36ссз1110069 0.0 10289
06:00−37з0010030 0.0 10289
09:00−37юз0010027 0.0 10289
12:00−29ююз019586 0.0 1027100
15:00−28юв119999 0.1 102611
18:00−27юв1299100 0.1 102564
21:00−25вюв1199100 0.3 102467
25 января, вт
вт2500:00−24в1199100 0.3 102355
03:00−25ссв11100100 0.6 102216
06:00−26сз11100100 0.1 102323
09:00−28сз1110094 0.2 102418
12:00−27сз239477 0.0 1025200
15:00−29зсз119716 0.0 102611
18:00−36з1110023 0.0 10289
21:00−33з1199100 0.0 102833
26 января, ср
ср2600:00−31зюз1297100 0.0 102888
03:00−30юз1199100 0.0 102847
06:00−32ююз11100100 0.0 10289
09:00−31ююз00100100 0.0 102813
12:00−28з1292100 0.0 1028279
15:00−28ссз0098100 0.0 10289
18:00−30вюв10100100 0.0 102811
21:00−28вюв0099100 0.0 102827